DO5RS-5 Weather Reports


Display with metric or nautical units.
time (UTC)temp
F
wind
direction
speed
MPH
gust
MPH
rain 1hr
in
rain 24hr
in
rain mn
in
humidity
%
barometer
mb
20260509160904 82 0.0 0.0 0.00 0.00 0.00 32 1017.9
20260509155904 81 0.0 0.0 0.00 0.00 0.00 32 1018.0
20260509154905 82 0.0 0.0 0.00 0.00 0.00 32 1017.9
20260509153915 82 0.0 0.0 0.00 0.00 0.00 32 1018.0
20260509151905 83 0.0 0.0 0.00 0.00 0.00 31 1018.1
20260509150904 84 0.0 0.0 0.00 0.00 0.00 31 1018.3
20260509145903 84 0.0 0.0 0.00 0.00 0.00 31 1018.3
20260509144904 83 0.0 0.0 0.00 0.00 0.00 31 1018.4
20260509143909 82 0.0 0.0 0.00 0.00 0.00 32 1018.3
20260509140904 82 0.0 0.0 0.00 0.00 0.00 31 1018.8
20260509135904 84 0.0 0.0 0.00 0.00 0.00 32 1018.8
20260509134905 83 0.0 0.0 0.00 0.00 0.00 32 1019.0
20260509133905 81 0.0 0.0 0.00 0.00 0.00 34 1019.1
20260509132909 83 0.0 0.0 0.00 0.00 0.00 31 1019.2
20260509130905 82 0.0 0.0 0.00 0.00 0.00 32 1019.5
20260509125905 81 0.0 0.0 0.00 0.00 0.00 32 1019.8
20260509124905 80 0.0 0.0 0.00 0.00 0.00 33 1019.9
20260509123905 81 0.0 0.0 0.00 0.00 0.00 32 1020.1
20260509122909 80 0.0 0.0 0.00 0.00 0.00 33 1020.1
20260509120905 77 0.0 0.0 0.00 0.00 0.00 37 1020.5
20260509115906 77 0.0 0.0 0.00 0.00 0.00 37 1020.7
20260509114905 78 0.0 0.0 0.00 0.00 0.00 35 1020.8
20260509113904 76 0.0 0.0 0.00 0.00 0.00 38 1021.0
20260509112904 76 0.0 0.0 0.00 0.00 0.00 40 1021.1
20260509111905 74 0.0 0.0 0.00 0.00 0.00 43 1021.4
20260509110910 72 0.0 0.0 0.00 0.00 0.00 46 1021.5
20260509104907 69 0.0 0.0 0.00 0.00 0.00 50 1021.8
20260509103904 67 0.0 0.0 0.00 0.00 0.00 53 1022.1
20260509102904 66 0.0 0.0 0.00 0.00 0.00 58 1022.2
20260509101906 64 0.0 0.0 0.00 0.00 0.00 62 1022.4
20260509100907 62 0.0 0.0 0.00 0.00 0.00 65 1022.6
20260509095910 61 0.0 0.0 0.00 0.00 0.00 67 1022.9
20260509093905 58 0.0 0.0 0.00 0.00 0.00 76 1023.1
20260509092911 57 0.0 0.0 0.00 0.00 0.00 76 1023.2
20260509090909 55 0.0 0.0 0.00 0.00 0.00 78 1023.4
20260509084905 55 0.0 0.0 0.00 0.00 0.00 79 1023.4
20260509083909 54 0.0 0.0 0.00 0.00 0.00 79 1023.5
20260509081909 54 0.0 0.0 0.00 0.00 0.00 77 1023.6
20260509075904 53 0.0 0.0 0.00 0.00 0.00 78 1023.8
20260509074909 53 0.0 0.0 0.00 0.00 0.00 76 1023.7
20260509072905 53 0.0 0.0 0.00 0.00 0.00 78 1023.7
20260509071905 53 0.0 0.0 0.00 0.00 0.00 78 1023.7
20260509070910 53 0.0 0.0 0.00 0.00 0.00 78 1023.7
20260509064904 53 0.0 0.0 0.00 0.00 0.00 77 1023.7
20260509063909 52 0.0 0.0 0.00 0.00 0.00 78 1023.6
20260509061909 52 0.0 0.0 0.00 0.00 0.00 78 1023.5
20260509055906 52 0.0 0.0 0.00 0.00 0.00 78 1023.5
20260509054905 52 0.0 0.0 0.00 0.00 0.00 78 1023.5
20260509053904 52 0.0 0.0 0.00 0.00 0.00 78 1023.5
20260509052906 51 0.0 0.0 0.00 0.00 0.00 78 1023.4
20260509051905 51 0.0 0.0 0.00 0.00 0.00 78 1023.4
20260509050906 51 0.0 0.0 0.00 0.00 0.00 78 1023.4
20260509045907 51 0.0 0.0 0.00 0.00 0.00 77 1023.2
20260509044904 51 0.0 0.0 0.00 0.00 0.00 77 1023.2
20260509043905 51 0.0 0.0 0.00 0.00 0.00 77 1023.1
20260509042904 52 0.0 0.0 0.00 0.00 0.00 77 1023.0
20260509041906 52 0.0 0.0 0.00 0.00 0.00 77 1023.0
20260509040907 52 0.0 0.0 0.00 0.00 0.00 76 1023.0
20260509035905 52 0.0 0.0 0.00 0.00 0.00 77 1022.9
20260509034904 52 0.0 0.0 0.00 0.00 0.00 77 1022.9
20260509033905 52 0.0 0.0 0.00 0.00 0.00 77 1022.8
20260509032904 52 0.0 0.0 0.00 0.00 0.00 77 1023.0
20260509031903 52 0.0 0.0 0.00 0.00 0.00 77 1022.9
20260509030904 52 0.0 0.0 0.00 0.00 0.00 76 1022.9
20260509025905 52 0.0 0.0 0.00 0.00 0.00 76 1023.0
20260509024904 52 0.0 0.0 0.00 0.00 0.00 76 1023.1
20260509023904 52 0.0 0.0 0.00 0.00 0.00 76 1023.1
20260509022905 52 0.0 0.0 0.00 0.00 0.00 76 1022.7
20260509021909 53 0.0 0.0 0.00 0.00 0.00 76 1023.1
20260509015905 53 0.0 0.0 0.00 0.00 0.00 76 1023.0
20260509014905 53 0.0 0.0 0.00 0.00 0.00 76 1023.0
20260509013905 53 0.0 0.0 0.00 0.00 0.00 76 1022.9
20260509012907 53 0.0 0.0 0.00 0.00 0.00 76 1022.9
20260509011913 53 0.0 0.0 0.00 0.00 0.00 76 1022.9
20260509004905 54 0.0 0.0 0.00 0.00 0.00 75 1023.1
20260509003906 54 0.0 0.0 0.00 0.00 0.00 75 1023.1
20260509002905 54 0.0 0.0 0.00 0.00 0.00 74 1023.1
20260509001905 54 0.0 0.0 0.00 0.00 0.00 74 1023.1
20260509000906 54 0.0 0.0 0.00 0.00 0.00 74 1023.1
20260508235909 54 0.0 0.0 0.00 0.00 0.00 74 1023.0
20260508233904 54 0.0 0.0 0.00 0.00 0.00 73 1023.1
20260508232904 54 0.0 0.0 0.00 0.00 0.00 74 1023.2
20260508231904 55 0.0 0.0 0.00 0.00 0.00 73 1023.1
20260508230903 55 0.0 0.0 0.00 0.00 0.00 73 1023.0
20260508225904 55 0.0 0.0 0.00 0.00 0.00 73 1023.0
20260508224909 55 0.0 0.0 0.00 0.00 0.00 72 1022.9
20260508222905 55 0.0 0.0 0.00 0.00 0.00 72 1023.0
20260508221905 56 0.0 0.0 0.00 0.00 0.00 72 1022.9
20260508220906 56 0.0 0.0 0.00 0.00 0.00 71 1022.9
20260508215904 56 0.0 0.0 0.00 0.00 0.00 71 1022.8
20260508214905 56 0.0 0.0 0.00 0.00 0.00 71 1022.8
20260508213904 56 0.0 0.0 0.00 0.00 0.00 70 1022.8
20260508212905 56 0.0 0.0 0.00 0.00 0.00 71 1022.1
20260508211905 57 0.0 0.0 0.00 0.00 0.00 71 1022.6
20260508210906 57 0.0 0.0 0.00 0.00 0.00 70 1022.4
20260508205905 57 0.0 0.0 0.00 0.00 0.00 70 1022.5
20260508204905 57 0.0 0.0 0.00 0.00 0.00 69 1022.4
20260508203904 58 0.0 0.0 0.00 0.00 0.00 69 1022.4
20260508202905 58 0.0 0.0 0.00 0.00 0.00 68 1022.3
20260508201909 58 0.0 0.0 0.00 0.00 0.00 67 1022.3
20260508195905 59 0.0 0.0 0.00 0.00 0.00 67 1022.2
20260508194904 59 0.0 0.0 0.00 0.00 0.00 65 1022.0
20260508193905 59 0.0 0.0 0.00 0.00 0.00 65 1021.9
20260508192905 60 0.0 0.0 0.00 0.00 0.00 64 1021.8
20260508191905 60 0.0 0.0 0.00 0.00 0.00 63 1021.7
20260508190905 61 0.0 0.0 0.00 0.00 0.00 62 1021.4
20260508185905 61 0.0 0.0 0.00 0.00 0.00 61 1021.2
20260508184906 62 0.0 0.0 0.00 0.00 0.00 60 1021.1
20260508183905 62 0.0 0.0 0.00 0.00 0.00 59 1021.0
20260508182905 63 0.0 0.0 0.00 0.00 0.00 57 1020.9
20260508181905 63 0.0 0.0 0.00 0.00 0.00 56 1020.9
20260508180904 64 0.0 0.0 0.00 0.00 0.00 56 1020.8
20260508175905 64 0.0 0.0 0.00 0.00 0.00 54 1020.7
20260508174904 65 0.0 0.0 0.00 0.00 0.00 53 1020.5
20260508173905 65 0.0 0.0 0.00 0.00 0.00 52 1020.5
20260508172910 66 0.0 0.0 0.00 0.00 0.00 50 1020.3
20260508170910 67 0.0 0.0 0.00 0.00 0.00 50 1020.2
20260508164906 67 0.0 0.0 0.00 0.00 0.00 48 1019.5
20260508163905 67 0.0 0.0 0.00 0.00 0.00 47 1020.0
20260508162905 68 0.0 0.0 0.00 0.00 0.00 44 1019.9